CAPE
0 0 0 0 0 0 0 0 3 0 0 0 0 0 0 0 0 0 0 0 0 7 6 4 1 2 1 2 0 1 1 2 3 5 8 3 0 0
0 0 0 0 0 0 0 0 0 0 0 0 0 0 0 0 0 0 0 0 0 6 6 3 3 1 1 3 0 0 0 4 6 5 5 7 7 1
0 0 0 0 0 0 0 0 0 0 0 0 0 0 0 0 0 0 0 0 0 0 5 2 2 2 2 1 0 0 1 1 2 1 2 6 10 0
0 0 0 0 0 0 0 0 0 0 0 0 0 0 0 0 0 0 0 0 0 0 0 2 0 0 0 2 0 0 0 0 1 0 0 1 1 2
0 0 0 0 0 0 0 0 0 0 0 0 0 0 0 0 0 0 0 0 0 0 0 0 0 0 0 0 0 0 0 0 0 0 0 0 0 0
0 0 0 0 0 0 0 0 0 0 0 0 0 0 0 0 0 0 0 0 0 0 0 0 0 0 0 0 0 0 0 0 1 0 0 0 0 0
0 0 0 0 0 0 0 0 0 0 0 0 0 0 0 0 0 0 0 0 0 0 0 0 0 0 0 0 0 0 0 0 0 1 1 0 0 0
0 0 0 0 0 0 0 0 0 0 0 0 0 0 0 0 0 0 0 0 0 0 0 0 0 0 0 0 0 0 0 0 0 0 0 0 0 0
0 0 0 0 0 0 0 0 0 0 0 0 0 0 0 0 0 0 0 0 0 0 0 0 0 0 0 0 0 0 0 0 0 0 0 0 0 0
0 0 0 0 0 0 0 0 0 0 0 0 0 0 0 0 0 0 0 0 0 0 0 0 0 0 0 0 0 0 4 0 0 0 0 0 0 0
0 0 0 0 0 0 0 0 0 0 0 0 0 0 0 0 0 0 0 0 0 0 0 0 0 0 0 0 0 0 0 2 1 1 0 0 0 0
0 0 0 0 0 0 0 0 0 0 0 0 0 0 0 0 0 0 0 0 0 0 0 0 0 0 0 0 0 0 0 1 1 0 1 0 0 0
0 0 0 0 0 0 1 1 0 0 0 0 0 0 0 0 0 0 0 0 0 0 0 0 0 0 0 0 0 0 0 0 0 0 1 1 1 0
0 0 0 0 0 1 0 1 2 2 0 0 0 0 0 0 0 1 0 0 0 0 0 0 0 0 0 0 0 0 0 0 0 0 0 0 2 2
0 0 0 0 0 0 0 1 0 0 0 0 0 0 1 1 0 0 0 0 0 0 0 0 0 0 0 0 0 0 0 0 0 0 0 0 0 0
0 0 0 0 0 0 0 0 2 2 0 0 0 0 1 1 0 0 0 0 0 0 0 0 0 0 0 0 0 0 0 0 0 0 0 0 0 0
0 0 0 0 0 0 0 0 0 0 0 0 0 0 0 0 0 0 0 0 0 0 0 0 0 0 0 0 0 0 0 0 0 0 0 0 0 0
0 0 0 0 0 0 0 0 0 1 0 0 0 0 0 0 0 0 0 0 0 0 0 0 0 0 1 0 0 1 1 0 0 0 0 0 0 0
0 0 0 0 0 0 0 0 0 0 0 0 0 0 0 0 0 0 0 0 0 0 0 0 0 0 0 0 0 0 0 0 0 1 0 0 0 0
0 0 0 0 0 0 0 0 0 2 1 1 2 3 1 1 2 1 1 1 0 0 0 0 0 0 0 0 0 0 0 0 0 0 0 0 0 0
0 0 0 0 0 0 0 0 0 2 4 7 5 1 1 4 2 3 1 1 1 1 1 1 0 1 0 0 0 0 0 0 0 0 0 0 0 0
0 0 0 0 0 0 0 0 0 0 0 2 8 6 0 2 1 2 1 0 0 0 0 0 0 0 0 1 1 0 0 0 0 0 0 0 0 0
0 0 0 0 0 0 0 1 0 0 0 0 4 6 6 2 2 0 0 0 0 0 0 0 0 0 0 0 0 0 0 0 0 0 1 1 0 0
CIN
0 0 0 0 0 0 0 0 0 0 0 0 0 0 0 0 0 0 0 0 -11 -10 -7 -3 0 0 0 0 0 0 0 0 0 0 0 0 0 0
0 0 0 0 0 0 0 0 0 0 0 0 0 0 0 0 0 0 0 0 0 -5 -4 -1 0 0 0 0 0 0 -2 0 0 0 0 0 0 0
0 0 0 0 0 0 0 0 0 0 0 0 0 0 0 0 0 0 0 0 0 -4 -11 -1 0 -2 0 -4 0 0 0 0 0 0 0 0 0 0
0 0 0 0 0 0 0 0 0 0 0 0 0 0 0 0 0 0 0 0 0 0 0 -12 0 0 0 0 -2 0 0 0 0 0 0 0 0 0
0 0 0 0 0 0 0 0 0 0 0 0 0 0 0 0 0 0 0 0 0 0 0 0 0 0 0 -1 -3 0 0 0 0 0 0 0 0 0
0 0 0 0 0 0 0 0 0 0 0 0 0 0 0 0 0 0 0 0 0 0 0 0 0 0 0 0 -1 0 0 0 0 0 0 0 0 0
0 0 0 0 0 0 0 0 0 0 0 0 0 0 0 0 0 0 0 0 0 0 0 0 0 0 0 0 0 0 0 0 0 0 0 0 0 0
0 0 0 0 0 0 0 0 0 0 0 0 0 0 0 0 0 0 0 0 0 0 0 0 0 0 0 0 0 0 0 0 0 0 0 0 0 0
0 0 0 0 0 0 0 0 0 0 0 0 0 0 0 0 0 0 0 0 0 0 0 0 0 0 0 0 0 0 0 0 0 0 0 0 0 0
0 0 0 0 0 0 0 0 0 0 0 0 0 0 0 0 0 0 0 0 0 0 0 0 0 0 0 0 0 0 0 0 0 0 0 0 0 0
0 0 0 0 0 0 0 0 0 0 0 0 0 0 0 0 0 0 0 0 0 0 0 0 0 0 0 0 0 0 0 0 0 0 0 0 0 0
0 0 0 0 0 0 0 0 0 0 0 0 0 0 0 0 0 0 0 0 0 0 0 0 0 0 0 0 0 0 0 0 0 0 0 0 0 0
0 0 0 0 0 0 -12 -7 0 -2 0 0 0 0 0 0 0 0 0 0 0 0 0 0 0 0 0 0 0 0 0 0 0 0 0 0 0 0
0 0 0 0 0 0 0 0 0 0 0 0 0 0 0 0 0 0 0 0 0 0 0 0 0 0 0 0 0 0 0 0 0 0 0 0 0 0
0 0 0 0 0 0 0 0 0 0 0 0 0 0 0 0 0 0 0 0 0 0 0 0 0 0 0 0 0 0 0 0 0 0 0 0 0 0
0 0 0 0 0 0 0 0 -1 -1 0 -1 0 0 0 0 0 0 0 0 0 0 0 0 0 0 0 0 0 0 0 0 0 0 0 0 0 0
0 0 0 0 0 0 0 0 0 0 -1 0 0 0 0 0 0 0 0 0 0 0 0 0 0 0 0 0 0 0 0 0 0 0 0 0 0 0
0 0 0 0 0 0 0 0 0 -2 -1 0 0 -1 0 0 0 0 0 0 0 0 0 0 0 0 0 0 0 0 0 0 0 0 0 0 0 0
0 0 0 0 0 0 0 0 0 -1 -3 0 0 -4 -7 0 0 0 0 0 0 0 0 0 0 0 0 0 0 0 0 0 0 0 0 0 0 0
0 0 0 0 0 0 0 0 0 -13 -12 -11 -8 -10 -9 -7 -1 0 0 0 0 0 0 0 0 0 0 0 0 0 0 0 0 0 0 0 0 0
0 0 0 0 0 0 0 0 0 -18 -10 -4 -2 -5 -5 -1 -2 -5 0 0 0 0 0 0 0 0 0 0 0 0 0 0 0 0 0 0 0 0
0 0 0 0 0 0 0 0 -1 0 0 -5 -2 -5 -2 -1 0 -5 -4 0 0 -1 0 0 0 -1 0 0 0 0 0 0 0 0 0 0 0 0
-2 0 0 0 0 0 0 -1 0 0 0 -5 -3 -1 0 0 0 -5 -1 0 -1 0 0 0 0 0 0 0 0 0 0 0 0 0 0 0 0 0
Wind_Speed
16 15 14 16 21 19 22 21 21 22 29 21 21 18 28 30 31 30 30 30 28 27 27 28 28 29 29 30 30 29 29 29 29 28 27 26 21 14
18 18 16 14 20 22 22 23 24 24 23 22 26 30 30 31 31 31 30 30 27 24 26 28 28 28 29 28 29 27 26 27 27 27 25 24 22 17
19 19 18 17 16 21 25 25 25 27 30 30 30 32 32 32 32 31 30 28 27 22 24 26 27 27 27 26 27 27 24 24 25 25 24 22 22 16
23 21 20 20 19 18 19 26 28 27 31 36 31 33 33 33 32 32 29 28 28 24 25 25 25 27 24 24 24 26 24 22 22 23 23 22 19 19
25 24 23 22 23 22 22 23 26 30 30 33 36 31 32 32 32 30 30 29 27 26 26 24 24 25 24 21 22 23 23 22 21 21 22 21 19 17
27 25 25 24 24 25 24 24 26 28 31 34 34 36 33 31 30 33 35 30 31 30 28 28 24 25 24 19 19 21 22 20 20 20 19 19 19 18
29 28 27 26 26 26 27 28 28 29 31 33 36 36 36 35 35 32 34 34 34 30 29 26 24 25 24 18 19 18 19 19 18 18 18 17 17 16
32 31 31 31 30 30 29 29 28 30 32 33 34 35 37 35 34 34 34 34 34 26 28 29 28 29 26 22 19 17 17 17 16 16 16 15 15 15
31 32 32 31 32 32 33 32 31 30 29 30 34 34 35 33 34 34 33 33 33 32 32 35 29 33 28 24 20 18 17 16 15 15 15 15 14 14
31 32 32 33 32 32 33 34 33 33 33 32 31 32 32 33 32 33 34 33 31 30 30 36 30 32 30 27 23 21 19 15 15 15 15 14 14 14
32 32 32 32 33 33 34 35 36 36 34 34 34 34 33 32 30 30 33 35 36 32 26 29 31 33 30 29 26 23 19 17 16 17 16 15 15 15
33 34 35 35 35 35 35 36 38 38 37 37 37 35 33 33 32 30 30 31 32 35 26 26 27 27 30 25 25 23 21 20 19 18 18 17 17 17
35 37 36 37 38 38 38 37 38 38 38 38 37 37 36 35 34 33 32 31 31 30 24 23 26 26 27 29 25 22 20 21 21 20 18 18 18 18
36 37 38 38 40 40 39 39 40 40 38 39 39 39 37 36 35 33 32 30 29 31 27 25 28 28 29 30 30 26 24 23 21 20 19 20 21 21
38 39 41 41 41 39 38 38 38 38 39 40 40 40 36 35 34 33 32 30 29 29 28 26 28 28 28 31 31 28 27 25 23 24 24 24 23 23
41 41 40 41 40 39 39 38 38 38 40 41 41 40 38 37 36 33 34 32 32 31 27 25 25 26 31 32 32 35 31 31 25 27 28 28 27 26
42 41 42 43 43 43 42 41 40 40 41 41 41 41 41 40 39 35 35 34 34 33 32 28 26 26 28 29 33 33 33 33 33 32 31 32 30 27
42 43 44 43 43 43 43 43 41 42 41 41 42 42 43 42 41 39 36 35 36 36 35 32 31 31 33 34 30 34 32 33 31 30 31 34 35 30
42 43 43 43 42 43 42 42 43 42 42 42 42 41 41 42 42 41 39 38 37 37 36 33 32 34 38 43 35 27 33 33 31 30 30 31 34 31
39 41 42 41 41 42 42 42 41 41 41 40 41 41 40 39 41 40 39 39 37 37 36 33 33 34 38 41 39 34 27 31 31 33 32 30 30 30
41 41 40 40 40 40 40 40 40 40 39 39 39 39 40 38 39 39 39 37 36 35 36 35 32 31 32 32 37 36 32 27 28 30 30 31 31 31
40 40 40 40 39 39 39 39 39 39 39 38 38 38 37 35 37 37 36 36 36 35 35 33 30 30 32 33 36 34 33 30 28 28 27 27 28 32
39 39 40 40 38 38 36 38 39 39 39 39 38 38 36 36 35 35 34 35 35 34 32 32 31 31 33 32 33 33 32 31 29 28 29 27 27 27
Wind_Direction
344 346 346 338 324 326 326 327 330 334 310 329 332 342 324 326 320 322 321 317 325 324 336 338 344 343 347 347 341 344 346 350 356 1 13 6 350 323
336 337 340 340 326 319 317 318 314 315 320 323 313 312 314 312 316 319 321 320 333 342 341 337 339 345 346 355 355 1 2 353 355 2 358 19 354 338
332 332 333 333 330 322 314 311 312 307 304 308 309 306 309 309 311 318 324 330 332 343 341 337 336 341 346 354 358 2 9 11 357 355 351 357 21 326
327 328 327 328 326 324 320 311 306 307 302 299 309 307 306 308 313 315 321 326 329 332 330 330 335 336 346 351 354 357 5 13 13 355 350 342 352 355
325 325 325 324 321 320 318 315 310 304 303 301 301 309 310 312 311 314 316 319 324 326 326 327 329 331 337 345 350 352 358 6 12 11 351 346 344 339
326 325 324 322 320 319 317 314 311 307 304 301 302 302 306 311 312 309 307 313 312 316 318 319 321 322 326 338 344 346 350 356 5 9 6 349 340 334
326 325 323 321 319 317 316 313 311 307 305 303 300 301 302 304 305 309 306 306 307 311 313 317 321 319 319 327 332 339 344 348 353 1 3 3 353 343
326 324 322 319 317 315 314 313 310 307 304 303 302 302 300 302 304 305 305 305 304 312 310 308 313 311 313 315 320 326 333 340 342 345 353 357 359 353
329 326 324 323 320 316 313 312 310 308 305 304 302 302 302 304 304 303 302 302 302 304 306 301 307 304 308 310 309 311 315 323 329 331 335 340 346 347
331 329 326 324 322 319 316 314 311 309 307 305 303 302 302 302 302 302 302 302 303 304 306 299 304 301 304 306 305 303 304 308 315 317 319 324 329 330
330 329 328 326 324 321 317 313 311 310 310 308 305 303 302 301 302 302 299 298 299 301 305 304 301 300 301 300 302 300 299 300 303 307 307 310 314 316
328 326 324 323 321 320 318 315 310 310 310 308 306 306 305 303 301 298 299 297 297 298 301 300 305 305 300 305 304 298 298 296 297 298 299 301 302 302
325 322 321 320 317 316 314 312 309 310 308 308 307 306 304 302 301 299 297 294 293 294 299 299 302 303 300 298 303 306 301 297 296 295 293 294 294 295
323 320 319 318 316 315 314 311 309 308 306 305 304 303 304 304 303 302 300 295 293 292 294 292 295 295 293 294 293 300 299 297 295 292 291 292 290 289
319 317 315 314 315 314 315 313 313 311 307 304 302 300 303 304 304 304 303 301 297 296 293 290 290 292 291 291 291 293 295 296 292 289 287 286 286 286
317 316 316 315 314 313 312 312 311 310 307 304 302 301 302 301 299 301 298 299 295 295 297 294 290 289 288 289 289 287 288 287 295 288 284 284 284 284
315 314 312 312 311 311 310 309 309 308 305 304 302 300 299 298 296 296 294 294 291 292 293 295 292 289 289 291 289 288 287 285 285 284 283 283 284 283
313 311 310 310 309 309 309 308 308 307 306 305 303 300 297 295 295 294 291 289 289 290 290 290 290 289 289 288 285 287 288 288 288 285 282 280 281 282
313 312 310 310 309 308 307 307 306 307 305 304 302 301 299 297 294 292 290 287 286 288 288 288 287 286 284 283 290 284 286 287 288 286 284 281 282 284
314 312 311 311 309 309 308 307 306 307 306 304 303 302 300 298 296 293 291 288 284 285 287 287 285 284 283 284 286 289 282 285 285 284 284 284 285 286
312 311 311 310 309 309 308 308 307 306 306 305 304 303 301 298 297 295 293 290 288 284 283 285 287 287 288 289 286 286 287 282 283 282 284 283 283 283
312 311 311 310 309 308 307 307 306 306 305 305 304 303 302 299 299 296 294 292 290 286 284 285 288 289 287 283 283 286 287 287 283 281 282 281 282 283
314 312 311 309 309 308 307 307 307 305 304 303 303 303 301 299 298 299 296 294 292 289 286 285 287 288 287 283 284 285 284 284 284 283 280 279 280 282